TIME,DELAY(SENSOR),PRES,OXYGEN,RAWTEMP,T(OPTODE),TCPHASE,FLUOR,BETA(BETA700),BETA(BETA412),BETA(BETA440),CDOM,C(CSC),ED(ED412.40),ED(ED444.00),ED(ED489.70),ED(ED554.30),LU(LU411.80),LU(LU443.40),LU(LU489.60),LU(LU554.10),COMP,TILTX,TILTY,CHECK
1344829082,5811,877.8699951171875000,45.2859611511230500,660.6759033203125000,4.6057171821594240,54.2260589599609400,53,99,89,79,80,15331,2147760548,2147423067,2148006564,2147873828,2147642166,2147064164,2148256137,2147197558,1516,4,13,47902
1344832678,5812,963.4000244140625000,48.7870101928710940,670.2208862304688000,4.2908987998962400,53.8430480957031250,52,98,91,80,82,15333,2147759515,2147421878,2148008950,2147875236,2147646107,2147061184,2148256301,2147198308,2172,4,13,49791
1344836278,5811,973.7500000000000000,49.6521606445312500,672.2470703125000000,4.2239398956298830,53.7445602416992200,52,100,86,78,81,15332,2147757385,2147425216,2148006372,2147875190,2147640027,2147058669,2148256374,2147199835,289,5,13,8284
1344839878,5809,979.1699829101562000,49.6578102111816400,673.4130249023438000,4.1853890419006350,53.7587814331054700,52,100,86,78,81,15331,2147760310,2147422848,2148007433,2147875026,2147643090,2147055232,2148260416,2147196333,531,4,13,17434
1344843478,5808,987.8499755859375000,49.6125411987304700,672.4431762695312000,4.2174549102783200,53.7545585632324200,53,98,86,79,81,15309,2147759926,2147423963,2148008621,2147873764,2147642715,2147060333,2148259035,2147196196,73,5,13,63799
1344847078,5810,977.0999755859375000,49.4003410339355500,673.5382080078125000,4.1812458038330080,53.7974395751953100,52,98,87,79,81,15312,2147757494,2147422582,2148009197,2147875081,2147645348,2147060580,2148256201,2147199049,3303,4,13,50362
1344850678,5810,985.4000244140625000,49.9220008850097660,673.6953125000000000,4.1760520935058590,53.7289695739746100,52,99,88,79,82,15310,2147760685,2147422774,2148008402,2147874322,2147644086,2147052196,2148255817,2147196205,3445,4,13,54635
1344854278,5807,992.7999877929688000,49.7630882263183600,673.4323730468750000,4.1847481727600100,53.7455596923828100,52,99,85,79,82,15308,2147758016,2147427099,2148009892,2147877494,2147642633,2147057078,2148260379,2147195565,50,5,13,9006
1344857878,5809,993.3300170898438000,49.7387008666992200,673.6627197265625000,4.1771278381347660,53.7529182434082000,53,98,87,80,84,15310,2147754742,2147422500,2148006564,2147874944,2147644352,2147059254,2148256411,2147196754,273,5,13,4444
1344861478,5809,991.6300048828125000,49.3449401855468750,673.3939819335938000,4.1860160827636720,53.7995491027832000,52,97,88,80,81,15310,2147757193,2147418816,2148009024,2147872685,2147643693,2147062902,2148255990,2147199689,3545,5,13,11184
1344865078,5807,988.6799926757812000,49.0551300048828100,673.9229125976562000,4.1685237884521480,53.8473014831543000,53,98,87,79,82,15308,2147757010,2147423414,2148008475,2147874395,2147641700,2147058422,2148258916,2147196507,61,5,13,50456
1344868678,5810,995.2000122070312000,49.5793685913085940,673.9594116210938000,4.1673150062561035,53.7753181457519500,53,98,88,79,82,15307,2147759524,2147421650,2148006107,2147874121,2147645650,2147059556,2148258212,2147195584,299,5,13,36792
1344872278,5808,991.1799926757812000,48.9764099121093750,674.0991821289062000,4.1626892089843750,53.8621101379394500,53,98,85,79,81,15305,2147757760,2147423853,2148005293,2147877504,2147644598,2147061147,2148263561,2147196589,371,5,13,64272
1344875878,5808,996.7199707031250000,50.0188598632812500,674.5344238281250000,4.1482930183410645,53.7267189025878900,53,98,89,79,82,15309,2147758080,2147421403,2148009636,2147877449,2147645833,2147054006,2148253988,2147194514,259,5,13,30378
1344879478,5809,986.1300048828125000,50.1258010864257800,675.3348999023438000,4.1218028068542480,53.7179298400878900,53,97,88,79,81,15307,2147759012,2147425398,2148003510,2147876982,2147642368,2147058450,2148265453,2147200320,542,5,13,58772
1344883078,5808,993.1900024414062000,49.4856986999511700,674.0968017578125000,4.1627688407897950,53.7933998107910160,53,97,89,79,82,15306,2147759652,2147420854,2148009435,2147872374,2147642788,2147060800,2148260717,2147197851,209,5,13,40079
1344886678,5813,995.3300170898438000,50.0904083251953100,674.6640014648438000,4.1440048217773440,53.7184982299804700,52,97,91,78,82,15308,2147758354,2147421001,2148008137,2147875776,2147642432,2147060507,2148259373,2147195364,90,5,13,5344
1344890278,5811,1000.0999755859375000,49.5914001464843750,674.1951293945312000,4.1595149040222170,53.7781105041503900,53,100,90,78,81,15308,2147760310,2147423314,2148009051,2147876141,2147641782,2147060315,2148260425,2147197211,497,5,13,28953
1344893878,5806,991.0200195312500000,49.6159591674804700,674.9464111328125000,4.1346631050109860,53.7877998352050800,53,105,87,78,82,15305,2147759579,2147421961,2148006637,2147877796,2147643291,2147056905,2148261668,2147196178,341,5,13,2005
1344897478,5809,997.0200195312500000,50.1199989318847660,675.8292846679688000,4.1054420471191410,53.7304382324218750,52,99,89,80,81,15308,2147759003,2147421513,2148006774,2147876041,2147643757,2147058331,2148259611,2147202203,437,5,13,61017
1344901078,5810,996.7100219726562000,49.4657402038574200,674.4298706054688000,4.1517491340637210,53.7966499328613300,53,98,92,80,82,15308,2147762331,2147421458,2148007204,2147878528,2147643556,2147053010,2148261741,2147197933,3502,4,13,45357
1344904678,5809,1008.3400268554688000,49.0657501220703100,673.7026977539062000,4.1758060455322270,53.8435897827148440,52,98,86,79,81,15307,2147756690,2147423085,2148008594,2147875172,2147639862,2147063588,2148256146,2147199350,381,5,13,38722
1344908278,5810,998.7100219726562000,48.3965301513671900,674.0847778320312000,4.1631679534912110,53.9467506408691400,52,97,90,79,81,15306,2147760493,2147419721,2148007387,2147873060,2147638884,2147059867,2148260169,2147197714,565,4,13,58652
1344911878,5807,1006.9799804687500000,49.5952606201171900,674.2241210937500000,4.1585597991943360,53.7770004272460940,53,98,86,79,82,15304,2147759241,2147420598,2148005878,2147873938,2147644288,2147059200,2148261293,2147198409,3575,5,13,47852
1344915478,5810,1006.8800048828125000,49.7263793945312500,674.2517089843750000,4.1576437950134280,53.7613716125488300,51,98,87,80,81,15307,2147757275,2147420077,2148005440,2147876955,2147640548,2147062820,2148261942,2147197028,2789,4,13,29657
1344919078,5809,999.4000244140625000,50.3773612976074200,675.0618896484375000,4.1308379173278810,53.6816787719726560,53,100,87,79,82,15305,2147760210,2147419712,2148006738,2147874989,2147640969,2147060160,2148266340,2147196306,382,5,13,6067
1344922678,5810,997.7000122070312000,50.2833709716796900,675.9818115234375000,4.1003909111022950,53.7091484069824200,53,98,89,79,81,15306,2147762678,2147420964,2148010294,2147876900,2147640859,2147065106,2148256192,2147196534,3381,5,13,24543
1344926278,5809,995.7700195312500000,50.3420486450195300,675.9481811523438000,4.1015048027038570,53.7001190185546900,53,97,87,80,81,15316,2147759040,2147421750,2148005988,2147873435,2147642075,2147060534,2148262454,2147199387,3526,4,13,29471
1344929878,5809,998.8699951171875000,50.0827903747558600,675.9650268554688000,4.1009478569030760,53.7371406555175800,52,97,88,79,82,15319,2147762852,2147418642,2148011657,2147874075,2147643812,2147061833,2148258450,2147198628,3589,5,13,62944
1344933478,5807,1003.7899780273438000,49.3368682861328100,674.8309936523438000,4.1384792327880860,53.8231887817382800,53,100,90,78,81,15318,2147759268,2147420516,2148009298,2147877979,2147642889,2147057581,2148258578,2147198802,494,4,13,60952
1344937078,5810,1006.9400024414062000,48.4848213195800800,673.8140869140625000,4.1721191406250000,53.9265708923339840,52,98,88,79,82,15315,2147759826,2147421467,2148009033,2147876361,2147641508,2147063625,2148260004,2147198710,1799,4,13,9850
1344940678,5810,1005.2199707031250000,49.0915489196777340,673.8834838867188000,4.1698250770568850,53.8452796936035160,52,97,86,79,81,15316,2147759442,2147422765,2148007168,2147876836,2147643090,2147057618,2148258624,2147199597,25,5,13,59673
1344944278,5807,1000.5399780273438000,48.8139190673828100,674.2059936523438000,4.1591567993164060,53.8896293640136700,51,99,88,80,82,15314,2147761444,2147418916,2148008914,2147876726,2147642834,2147062592,2148258176,2147198354,3569,4,13,65151
1344947878,5809,1004.4600219726562000,48.6422195434570300,673.8712158203125000,4.1702308654785160,53.9096107482910160,53,100,90,78,82,15313,2147758820,2147422272,2148008822,2147876662,2147645540,2147059053,2148262646,2147196150,3264,4,13,28892
1344951478,5806,1003.0700073242188000,48.7480392456054700,674.8239746093750000,4.1387119293212890,53.9075584411621100,51,99,87,79,81,15311,2147762916,2147421878,2148007012,2147874514,2147642980,2147058797,2148261339,2147197632,3511,4,13,10487
1344955078,5810,1004.4099731445312000,49.7312393188476560,675.9287109375000000,4.1021499633789060,53.7815093994140600,52,98,90,79,82,15311,2147761590,2147419968,2148010029,2147876635,2147642432,2147060461,2148260397,2147199076,566,5,13,64141
1344958678,5809,1003.7199707031250000,50.1835403442382800,675.9414062500000000,4.1017298698425290,53.7196807861328100,52,107,88,78,81,15314,2147758445,2147421622,2148008832,2147877568,2147645595,2147061037,2148260836,2147200612,72,5,13,5320
1344962278,5810,1004.6799926757812000,50.3803787231445300,675.9545288085938000,4.1012969017028810,53.6956291198730500,53,99,87,80,81,15314,2147759734,2147420836,2148010368,2147876324,2147642733,2147060845,2148257974,2147195611,128,5,13,12903
1344965878,5807,1006.8699951171875000,50.4613418579101560,675.6403808593750000,4.1116938591003420,53.6791801452636700,53,99,90,80,81,15316,2147761654,2147423241,2148008301,2147874953,2147643053,2147060032,2148261449,2147202432,633,4,13,39698
1344969478,5810,999.5200195312500000,49.7761497497558600,675.9445190429688000,4.1016287803649900,53.7758216857910160,53,99,88,79,82,15313,2147759634,2147421092,2148008118,2147875035,2147643629,2147058916,2148260635,2147198180,16,5,13,52753
1344973078,5809,997.2500000000000000,49.8436889648437500,676.8867187500000000,4.0704331398010250,53.7803306579589840,52,97,90,78,82,15311,2147759158,2147420772,2148006884,2147876763,2147647296,2147064576,2148259264,2147198866,10,5,13,34824
1344973856,5807,1003.5000000000000000,50.6776313781738300,676.8906860351562000,4.0702991485595700,53.6668395996093750,53,99,85,79,83,15341,2147757833,2147421750,2148007085,2147877229,2147644525,2147062848,2148256795,2147198418,3338,4,13,60779
